Location: Isle of Man Observatory
(54.1776°N, 4.6264°W)
Time: 06:37:50
(UTC+02:00)

Envisat - Pass Details

Date: 19 May 2026
Orbit: 761 x 763 km, 98.4° (Epoch: 11 June)

Event Time Altitude Azimuth Distance (km) Brightness Sun altitude
Rises 04:57:44 0° 16° (NNE) 3,238 7.7 -8.3°
Reaches altitude 10° 05:00:04 10° 20° (NNE) 2,308 6.8 -8.0°
Maximum altitude 05:05:08 68° 103° (ESE) 824 3.3 -7.6°
Drops below altitude 10° 05:10:10 10° 187° (S) 2,290 5.0 -7.1°
Enters shadow 05:11:38 - 189° (S) 2,875 5.5 -7.0°
